Volver al catálogo

DELTA 1 DEB

ActivoSSO
NORAD 40756·DEBRIS·🇺🇸 United States

Lanzado Jul 29, 1976 desde Vandenberg Space Force Base

Loading…

Próximos Pases (próximas 24 horas)

TLE

ActualizadoSource: Space-Track

Época: Sep 13, 2026, 04:31 UTC

1 40756U 76077FZ  26256.18834434 -.00000049  00000-0 -25216-4 0  9990
2 40756 102.5818 241.6706 0077050 220.5992 153.2342 12.25958732967324

Sigue DELTA 1 DEB en tiempo real con AllMySat

Download on the App Store